Sulphur, LA

4:03 AM CDT on August 22, 2017 (GMT -0500)
Sulphur

Weather History for KUXL - February, 2013

Change the Weather History Date:

Sunday, February 17, 2013

  Actual Average (KLCH) Record (KLCH)
Temperature  
Mean Temperature 52 °F -  
Max Temperature 68 °F 63 °F 80 °F (1911)
Min Temperature 37 °F 44 °F 20 °F (1903)
Degree Days  
Heating Degree Days 12    
Growing Degree Days 2 (Base 50)    
Moisture  
Dew Point 43 °F    
Average Humidity 68    
Maximum Humidity 93    
Minimum Humidity 40    
Precipitation  
Precipitation 0.00 in - - ()
Sea Level Pressure  
Sea Level Pressure 30.23 in    
Wind  
Wind Speed 6 mph (SSE)    
Max Wind Speed 20 mph    
Max Gust Speed 26 mph    
Visibility 10 miles    
Events      
Averages and records for this station are not official NWS values.
T = Trace of Precipitation, MM = Missing Value Source: NWS Daily Summary

Daily Weather History Graph

Daily Weather History Graph

Search for Another Location

Airport or City:

Trip Planner

Search our weather history database for the weather conditions in past years. The results will help you decide how hot, cold, wet, or windy it might be!

Date:

Astronomy

Feb. 17, 2013 Rise Set
Actual Time 6:51 AM CST 6:03 PM CST
Civil Twilight 6:27 AM CST 6:28 PM CST
Nautical Twilight 5:59 AM CST 6:56 PM CST
Astronomical Twilight 5:31 AM CST 7:24 PM CST
Moon 11:18 AM CST (2/17) 12:27 AM CST (2/17)
Length of Visible Light 12h 01m
Length of Day
11h 12m
Waxing Crescent, 49% of the Moon is Illuminated
Feb 17
Waxing Crescent
Feb 17
First Quarter
Feb 25
Full
Mar 4
Last Quarter
Mar 11
New

Hourly Weather History & Observations

Time (CST) Temp. Windchill Dew Point Humidity Pressure Visibility Wind Dir Wind Speed Gust Speed Precip Events Conditions
12:15 AM 39.2 °F - 35.6 °F 87% 30.29 in 10.0 mi Calm Calm - N/A   Clear
12:35 AM 41.0 °F - 35.6 °F 81% 30.29 in 10.0 mi Calm Calm - N/A   Clear
12:55 AM 37.4 °F 34.9 °F 35.6 °F 93% 30.28 in 10.0 mi SE 3.5 mph - N/A   Clear
1:15 AM 41.0 °F - 35.6 °F 81% 30.28 in 10.0 mi Calm Calm - N/A   Clear
1:35 AM 41.0 °F - 35.6 °F 81% 30.28 in 10.0 mi Calm Calm - N/A   Clear
1:55 AM 41.0 °F - 35.6 °F 81% 30.28 in 10.0 mi Calm Calm - N/A   Clear
2:15 AM 37.4 °F - 35.6 °F 93% 30.27 in 10.0 mi Calm Calm - N/A   Clear
2:35 AM 39.2 °F - 35.6 °F 87% 30.27 in 10.0 mi Calm Calm - N/A   Clear
2:55 AM 41.0 °F 39.0 °F 35.6 °F 81% 30.27 in 10.0 mi East 3.5 mph - N/A   Clear
3:15 AM 41.0 °F 39.0 °F 35.6 °F 81% 30.27 in 10.0 mi ESE 3.5 mph - N/A   Clear
3:35 AM 42.8 °F 41.1 °F 35.6 °F 76% 30.27 in 10.0 mi ESE 3.5 mph - N/A   Clear
3:55 AM 42.8 °F 41.1 °F 37.4 °F 81% 30.27 in 10.0 mi ESE 3.5 mph - N/A   Clear
4:15 AM 41.0 °F - 37.4 °F 87% 30.27 in 10.0 mi Calm Calm - N/A   Clear
4:35 AM 42.8 °F - 37.4 °F 81% 30.27 in 10.0 mi Calm Calm - N/A   Clear
4:55 AM 42.8 °F 40.1 °F 35.6 °F 76% 30.27 in 10.0 mi ESE 4.6 mph - N/A   Clear
5:15 AM 42.8 °F 39.3 °F 33.8 °F 70% 30.27 in 10.0 mi East 5.8 mph - N/A   Clear
5:35 AM 42.8 °F 39.3 °F 35.6 °F 76% 30.27 in 10.0 mi East 5.8 mph - N/A   Clear
5:55 AM 42.8 °F 40.1 °F 35.6 °F 76% 30.27 in 10.0 mi ESE 4.6 mph - N/A   Clear
6:15 AM 44.6 °F 40.7 °F 35.6 °F 71% 30.27 in 10.0 mi ESE 6.9 mph - N/A   Clear
6:35 AM 42.8 °F 39.3 °F 35.6 °F 76% 30.27 in 10.0 mi ESE 5.8 mph - N/A   Clear
6:55 AM 42.8 °F 40.1 °F 35.6 °F 76% 30.27 in 10.0 mi ESE 4.6 mph - N/A   Clear
7:15 AM 42.8 °F 40.1 °F 37.4 °F 81% 30.27 in 10.0 mi East 4.6 mph - N/A   Clear
7:35 AM 46.4 °F 44.3 °F 41.0 °F 81% 30.28 in 10.0 mi East 4.6 mph - N/A   Clear
7:55 AM 48.2 °F - 41.0 °F 76% 30.28 in 10.0 mi East 5.8 mph - N/A   Clear
8:15 AM 50.0 °F - 42.8 °F 76% 30.29 in 10.0 mi East 5.8 mph - N/A   Clear
8:35 AM 51.8 °F - 42.8 °F 71% 30.29 in 10.0 mi East 3.5 mph - N/A   Clear
8:55 AM 53.6 °F - 44.6 °F 72% 30.29 in 10.0 mi ESE 4.6 mph - N/A   Clear
9:15 AM 57.2 °F - 44.6 °F 63% 30.29 in 10.0 mi SE 6.9 mph - N/A   Clear
9:35 AM 59.0 °F - 46.4 °F 63% 30.30 in 10.0 mi SE 6.9 mph - N/A   Clear
9:55 AM 60.8 °F - 46.4 °F 59% 30.29 in 10.0 mi South 8.1 mph - N/A   Clear
10:15 AM 62.6 °F - 46.4 °F 55% 30.29 in 10.0 mi South 11.5 mph - N/A   Clear
10:35 AM 62.6 °F - 46.4 °F 55% 30.29 in 10.0 mi South 11.5 mph 16.1 mph N/A   Clear
10:55 AM 64.4 °F - 44.6 °F 49% 30.28 in 10.0 mi South 13.8 mph - N/A   Clear
11:15 AM 66.2 °F - 42.8 °F 43% 30.28 in 10.0 mi South 10.4 mph 17.3 mph N/A   Clear
11:35 AM 64.4 °F - 44.6 °F 49% 30.27 in 10.0 mi South 11.5 mph 17.3 mph N/A   Clear
11:55 AM 66.2 °F - 44.6 °F 46% 30.27 in 10.0 mi SSW 15.0 mph 18.4 mph N/A   Clear
12:15 PM 66.2 °F - 44.6 °F 46% 30.26 in 10.0 mi SSW 13.8 mph 20.7 mph N/A   Clear
12:55 PM 68.0 °F - 42.8 °F 40% 30.24 in 10.0 mi South 13.8 mph 19.6 mph N/A   Clear
1:15 PM 68.0 °F - 44.6 °F 43% 30.23 in 10.0 mi South 18.4 mph 23.0 mph N/A   Clear
1:35 PM 68.0 °F - 44.6 °F 43% 30.22 in 10.0 mi South 15.0 mph 23.0 mph N/A   Clear
1:55 PM 68.0 °F - 44.6 °F 43% 30.21 in 10.0 mi South 15.0 mph 20.7 mph N/A   Clear
2:15 PM 66.2 °F - 44.6 °F 46% 30.21 in 10.0 mi South 19.6 mph 24.2 mph N/A   Scattered Clouds
2:35 PM 64.4 °F - 44.6 °F 49% 30.20 in 10.0 mi South 16.1 mph 24.2 mph N/A   Scattered Clouds
2:55 PM 64.4 °F - 44.6 °F 49% 30.20 in 10.0 mi South 17.3 mph 24.2 mph N/A   Clear
3:15 PM 64.4 °F - 44.6 °F 49% 30.19 in 10.0 mi SSE 17.3 mph 23.0 mph N/A   Clear
3:35 PM 64.4 °F - 42.8 °F 45% 30.19 in 10.0 mi South 19.6 mph 24.2 mph N/A   Clear
3:55 PM 64.4 °F - 44.6 °F 49% 30.19 in 10.0 mi South 13.8 mph 26.5 mph N/A   Clear
4:15 PM 64.4 °F - 44.6 °F 49% 30.18 in 10.0 mi South 16.1 mph - N/A   Clear
4:35 PM 62.6 °F - 44.6 °F 52% 30.18 in 10.0 mi South 15.0 mph 23.0 mph N/A   Clear
4:55 PM 62.6 °F - 44.6 °F 52% 30.18 in 10.0 mi South 15.0 mph 23.0 mph N/A   Clear
5:15 PM 62.6 °F - 44.6 °F 52% 30.18 in 10.0 mi South 13.8 mph 20.7 mph N/A   Clear
5:35 PM 60.8 °F - 46.4 °F 59% 30.17 in 10.0 mi SSE 12.7 mph 20.7 mph N/A   Clear
5:55 PM 59.0 °F - 46.4 °F 63% 30.17 in 10.0 mi SSE 10.4 mph - N/A   Clear
6:15 PM 57.2 °F - 46.4 °F 67% 30.17 in 10.0 mi SE 8.1 mph - N/A   Clear
6:35 PM 55.4 °F - 46.4 °F 72% 30.16 in 10.0 mi SE 6.9 mph - N/A   Clear
6:55 PM 55.4 °F - 46.4 °F 72% 30.16 in 10.0 mi SSE 8.1 mph - N/A   Clear
7:15 PM 55.4 °F - 48.2 °F 77% 30.16 in 10.0 mi SE 6.9 mph - N/A   Clear
7:35 PM 55.4 °F - 50.0 °F 82% 30.16 in 10.0 mi SSE 5.8 mph - N/A   Clear
7:55 PM 53.6 °F - 48.2 °F 82% 30.16 in 10.0 mi SSE 4.6 mph - N/A   Clear
8:15 PM 53.6 °F - 48.2 °F 82% 30.17 in 10.0 mi SSE 5.8 mph - N/A   Clear
8:35 PM 53.6 °F - 50.0 °F 88% 30.17 in 10.0 mi SSE 5.8 mph - N/A   Clear
8:55 PM 55.4 °F - 50.0 °F 82% 30.17 in 10.0 mi SSE 8.1 mph - N/A   Clear
9:15 PM 55.4 °F - 50.0 °F 82% 30.17 in 10.0 mi SSE 9.2 mph - N/A   Clear
9:35 PM 57.2 °F - 50.0 °F 77% 30.17 in 10.0 mi SSE 10.4 mph - N/A   Scattered Clouds
9:55 PM 57.2 °F - 50.0 °F 77% 30.17 in 10.0 mi SSE 11.5 mph - N/A   Scattered Clouds
10:15 PM 57.2 °F - 50.0 °F 77% 30.17 in 10.0 mi SSE 11.5 mph - N/A   Clear
10:35 PM 57.2 °F - 50.0 °F 77% 30.16 in 10.0 mi SSE 10.4 mph - N/A   Scattered Clouds
10:55 PM 59.0 °F - 50.0 °F 72% 30.16 in 10.0 mi SSE 11.5 mph - N/A   Scattered Clouds
11:15 PM 59.0 °F - 50.0 °F 72% 30.16 in 10.0 mi SSE 11.5 mph - N/A   Scattered Clouds
11:35 PM 59.0 °F - 50.0 °F 72% 30.15 in 10.0 mi SSE 12.7 mph - N/A   Scattered Clouds
11:55 PM 59.0 °F - 50.0 °F 72% 30.15 in 10.0 mi SSE 12.7 mph - N/A   Clear